Flag for Germany Weather past 2 weeks in Hockenheim, Baden-Württemberg, Germany

Now
39 °F

Scattered clouds.


Feels Like: 35 °F
Forecast: 33 / 52 °F
Wind: 6 mph from Southeast

Location: Baden Wurttemberg - Neuostheim

Current Time: Mar 6, 2015 at 10:39:54 AM

Latest Report: Mar 6, 2015 at 9:50 AM


Visibility: N/A

Pressure: 30.66 "Hg

Humidity: 75%

Dew point: 32 °F

Location of HockenheimLocation

Historic Weather in Hockenheim — Graph

°F

Hockenheim temperature yesterday

Maximum temperature yesterday: 46 °F (at 1:50 PM)
Minimum temperature yesterday: 36 °F (at 6:50 AM)
Average temperature yesterday: 43 °F

Past Weeks' High & Low Weather Summary

 TemperatureHumidityPressure
High55 °F (Feb 20, 3:20 PM)100% (Feb 22, 7:50 AM)30.69 "Hg (Feb 22, 7:50 AM)
Low30 °F (Feb 28, 7:50 AM)35% (Mar 2, 3:20 PM)29.47 "Hg (Feb 23, 2:20 PM)
Average42 °F71%30.02 "Hg
* Reported Feb 19 9:20 AM — Mar 6 9:20 AM, Hockenheim, Weather by CustomWeather, © 2015

Note: Actual official high and low records may vary slightly from our data, if they occured in-between our weather recording intervals... More about our weather records

Advertising

Hockenheim weather history for previous 24 hours

 ConditionsComfort  
Time TempWeatherWind HumidityBarometerVisibility
9:20 AM
Fri, Mar 6
37 °FPartly sunny.5 mph81%30.66 "HgN/A
8:50 AM36 °FScattered clouds.5 mph81%30.69 "HgN/A
8:20 AM34 °FScattered clouds.3 mph87%30.66 "HgN/A
7:50 AM32 °FPartly sunny.5 mph93%30.66 "HgN/A
7:20 AM32 °FPartly sunny.2 mph87%30.66 "HgN/A
6:50 AM32 °FOvercast.2 mph93%30.66 "HgN/A
6:20 AM30 °FPassing clouds.2 mph93%30.66 "HgN/A
5:50 AM30 °FClear.2 mph93%30.66 "Hg10 mi
8:50 PM
Thu, Mar 5
43 °FPassing clouds.7 mph61%30.63 "HgN/A
8:20 PM43 °FPassing clouds.7 mph61%30.63 "HgN/A
7:50 PM43 °FPassing clouds.5 mph57%30.63 "HgN/A
7:20 PM43 °FClear.5 mph57%30.63 "Hg10 mi
6:50 PM43 °FClear.5 mph61%30.63 "Hg10 mi
6:20 PM45 °FPassing clouds.7 mph53%30.60 "HgN/A
5:50 PM46 °FMore clouds than sun.9 mph50%30.60 "HgN/A
5:20 PM46 °FOvercast.6 mph50%30.60 "HgN/A
4:50 PM46 °FBroken clouds.7 mph50%30.60 "HgN/A
4:20 PM46 °FScattered clouds.8 mph53%30.60 "HgN/A
3:50 PM46 °FBroken clouds.12 mph50%30.60 "HgN/A
3:20 PM46 °FBroken clouds.9 mph46%30.60 "HgN/A
2:50 PM46 °FBroken clouds.12 mph50%30.60 "HgN/A
2:20 PM46 °FScattered clouds.9 mph50%30.60 "HgN/A
1:50 PM46 °FPartly sunny.9 mph50%30.60 "HgN/A
1:20 PM45 °FPartly sunny.9 mph53%30.63 "HgN/A
12:50 PM45 °FScattered clouds.8 mph53%30.63 "HgN/A
12:20 PM45 °FScattered clouds.8 mph53%30.63 "HgN/A
11:50 AM45 °FBroken clouds.10 mph57%30.63 "HgN/A
11:20 AM43 °FPartly sunny.7 mph57%30.63 "HgN/A
10:50 AM41 °FBroken clouds.10 mph61%30.63 "HgN/A
10:20 AM41 °FBroken clouds.13 mph66%30.63 "HgN/A
Weather by CustomWeather, © 2015

See weather overviewHow to use our weather pages